Regional Weather Roundup
Issued by NWS

Home | Current Version | Previous Version | Graphics & Text | Print | Product List | Glossary On
Versions: 1 2 3 4 5 6 7 8 9 10 11 12 13 14 15 16 17 18 19 20 21 22 23 24 25 26 27 28 29 30 31 32 33 34 35 36 37 38 39 40 41 42 43 44 45 46 47 48 49 50
000
ASUS45 KCYS 181410
RWRWY

WYOMING REGIONAL WEATHER ROUNDUP
NATIONAL WEATHER SERVICE CHEYENNE WY
800 AM MDT SAT APR 18 2015

NOTE:  "FAIR" INDICATES FEW OR NO CLOUDS BELOW 12,000 FEET
WITH NO SIGNIFICANT WEATHER AND/OR OBSTRUCTIONS TO VISIBILITY.

WYZ001-181500-
YELLOWSTONE NATIONAL PARK

CITY           SKY/WX    TMP DP  RH WIND       PRES   REMARKS
LK YELLOWSTONE   N/A     26  21  81 CALM      30.15S
W YELLOWSTONE  NOT AVBL

$$
WYZ002>013-054>058-071-098>099-181500-
NORTHERN WYOMING

CITY           SKY/WX    TMP DP  RH WIND       PRES   REMARKS
JACKSON        FAIR      34  25  69 N7        30.10S WCI  28
CODY           FAIR      45  30  57 CALM      30.04R
GREYBULL       FAIR      41  28  60 N3        30.02R
WORLAND        FAIR      41  34  76 S6        30.02R
SHERIDAN       FAIR      39  33  79 CALM      29.99S
BUFFALO        FAIR      46  32  58 MISG      30.00R
GILLETTE       FAIR      41  39  93 S5        30.01R
HULETT         PTSUNNY   43  41  93 CALM      30.01F
NEWCASTLE      RAIN      43  43 100 CALM      30.00F

$$
WYZ014>020-022>026-101>103-181500-
CENTRAL WYOMING

CITY           SKY/WX    TMP DP  RH WIND       PRES   REMARKS
BIG PINEY      FAIR      28  24  85 CALM      30.06S
PINEDALE       FAIR      27  23  86 CALM      30.06F
DUBOIS         FAIR      32  23  69 NW12      30.06S WCI  23
LANDER         FAIR      34  31  88 SE7       30.03R WCI  28
RIVERTON       FAIR      40  36  86 NW6       30.04R
CASPER         PTSUNNY   39  37  92 SW5       30.00F
DOUGLAS        LGT RAIN  38  36  92 NW14      29.98F FOG     WCI  30

$$
WYZ021-027>030-104>119-181500-
SOUTHERN WYOMING

CITY           SKY/WX    TMP DP  RH WIND       PRES   REMARKS
EVANSTON       FAIR      33  30  88 SW6       30.08S WCI  28
FORT BRIDGER   SUNNY     36  34  93 W13       30.08S WCI  27
ROCK SPRINGS   FAIR      35  33  92 S3        30.05R FOG
DIXON          LGT SNOW  31  29  94 CALM      30.02F
RAWLINS        CLOUDY    34  32  92 NW7       30.00S WCI  28
SARATOGA       SNOW      32  32 100 NW3       29.99S VSB 1/2
LARAMIE        SNOW      28  27  96 S5        29.95F VSB 1/2 WCI  23
CHEYENNE       CLOUDY    36  32  85 NW6       29.94S WCI  31
TORRINGTON     CLOUDY    43  42  97 CALM      29.93S
PINE BLUFFS    CLOUDY    36  36 100 NW6       29.95S WCI  31

$$



USA.gov is the U.S. government's official web portal to all federal, state and local government web resources and services.